Wolf Point, MT

7:21 AM MDT on October 18, 2017 (GMT -0600)
Clayton

Weather History for KOLF - September, 2013

Change the Weather History Date:

Tuesday, September 3, 2013

  Actual Average Record
Temperature  
Mean Temperature 79 °F -  
Max Temperature 95 °F 80 °F 100 °F (1998)
Min Temperature 62 °F 46 °F 36 °F (2008)
Degree Days  
Heating Degree Days 0    
Cooling Degree Days 14    
Growing Degree Days 29 (Base 50)    
Moisture  
Dew Point 56 °F    
Average Humidity 50    
Maximum Humidity 73    
Minimum Humidity 28    
Precipitation  
Precipitation 0.00 in 0.04 in 0.42 in (1999)
Month to date precipitation 0.00 0.12  
Year to date precipitation 11.64 9.79  
Sea Level Pressure  
Sea Level Pressure 29.91 in    
Wind  
Wind Speed 6 mph (ENE)    
Max Wind Speed 16 mph    
Max Gust Speed -    
Visibility 10 miles    
Events      
T = Trace of Precipitation, MM = Missing Value Source: NWS Daily Summary

Daily Weather History Graph

Daily Weather History Graph

Search for Another Location

Airport or City:

Trip Planner

Search our weather history database for the weather conditions in past years. The results will help you decide how hot, cold, wet, or windy it might be!

Date:

Astronomy

Sep. 03, 2013 Rise Set
Actual Time 6:23 AM MDT 7:38 PM MDT
Civil Twilight 5:51 AM MDT 8:10 PM MDT
Nautical Twilight 5:12 AM MDT 8:49 PM MDT
Astronomical Twilight 4:30 AM MDT 9:30 PM MDT
Moon 4:35 AM MDT (9/3) 6:28 PM MDT (9/3)
Length of Visible Light 14h 19m
Length of Day
13h 15m
Waning Crescent, 3% of the Moon is Illuminated
Sep 3
Waning Crescent
Sep 5
New
Sep 12
First Quarter
Sep 19
Full
Sep 26
Last Quarter

Hourly Weather History & Observations

Time (MDT) Temp. Heat Index Dew Point Humidity Pressure Visibility Wind Dir Wind Speed Gust Speed Precip Events Conditions
12:53 AM 69.1 °F - 55.0 °F 61% 29.85 in 10.0 mi ESE 6.9 mph - N/A   Clear
1:53 AM 71.1 °F - 53.1 °F 53% 29.86 in 10.0 mi ENE 5.8 mph - N/A   Clear
2:53 AM 71.1 °F - 54.0 °F 55% 29.85 in 10.0 mi NE 5.8 mph - N/A   Clear
3:53 AM 66.0 °F - 55.0 °F 68% 29.85 in 10.0 mi Calm Calm - N/A   Clear
4:53 AM 64.0 °F - 55.0 °F 73% 29.86 in 10.0 mi Calm Calm - N/A   Clear
5:53 AM 63.0 °F - 54.0 °F 72% 29.87 in 10.0 mi NE 4.6 mph - N/A   Clear
6:53 AM 63.0 °F - 54.0 °F 72% 29.89 in 10.0 mi ENE 5.8 mph - N/A   Clear
7:53 AM 69.1 °F - 55.9 °F 63% 29.89 in 10.0 mi ENE 5.8 mph - N/A   Clear
8:53 AM 71.1 °F - 57.9 °F 63% 29.90 in 10.0 mi East 4.6 mph - N/A   Clear
9:53 AM 71.1 °F - 59.0 °F 66% 29.93 in 10.0 mi SSE 3.5 mph - N/A   Clear
10:53 AM 75.9 °F - 57.9 °F 54% 29.93 in 10.0 mi Variable 3.5 mph - N/A   Clear
11:53 AM 82.9 °F 82.6 °F 57.9 °F 42% 29.92 in 10.0 mi NE 9.2 mph - N/A   Clear
12:53 PM 86.0 °F 85.4 °F 59.0 °F 40% 29.92 in 10.0 mi ESE 8.1 mph - N/A   Clear
1:53 PM 89.1 °F 88.0 °F 57.9 °F 35% 29.91 in 10.0 mi East 5.8 mph - N/A   Clear
2:53 PM 91.9 °F 90.8 °F 57.9 °F 32% 29.89 in 10.0 mi Variable 3.5 mph - N/A   Clear
3:53 PM 95.0 °F 94.0 °F 57.9 °F 29% 29.89 in 10.0 mi East 4.6 mph - N/A   Clear
4:53 PM 95.0 °F 93.7 °F 57.0 °F 28% 29.89 in 10.0 mi East 3.5 mph - N/A   Clear
5:53 PM 93.9 °F 92.2 °F 55.9 °F 28% 29.90 in 10.0 mi East 9.2 mph - N/A   Clear
6:53 PM 89.1 °F 87.7 °F 57.0 °F 34% 29.90 in 10.0 mi East 9.2 mph - N/A   Clear
7:53 PM 82.9 °F 82.0 °F 55.0 °F 38% 29.93 in 10.0 mi ENE 12.7 mph - N/A   Clear
8:53 PM 79.0 °F - 55.0 °F 44% 29.96 in 10.0 mi ENE 16.1 mph - N/A   Clear
9:53 PM 77.0 °F - 53.1 °F 43% 29.98 in 10.0 mi ENE 13.8 mph - N/A   Clear
10:53 PM 73.0 °F - 53.1 °F 49% 29.99 in 10.0 mi ENE 13.8 mph - N/A   Clear
11:53 PM 71.1 °F - 55.0 °F 57% 30.00 in 10.0 mi ENE 11.5 mph - N/A   Clear